Location: Co-Op City
(40.8739°N, 73.8294°W)
Time: 18:00:41
(UTC+00:00)

Daily predictions for brighter satellites

Satellite Brightness Start Highest point End
(mag) Time Altitude Azimuth Time Altitude Azimuth Time Altitude Azimuth
Cosmos 1606 Rocket 3.6 22:29:15 10° S 22:33:34 60° E 22:37:53 10° NNE
Nadezhda 3 Rocket 4.0 22:29:37 10° S 22:35:50 74° E 22:42:10 10° N
Cosmos 1356 4.5 22:35:36 10° SSE 22:38:27 24° E 22:41:18 10° NE
Cosmos 1934 Rocket 4.4 22:33:49 10° N 22:39:49 42° ENE 22:45:47 10° SSE
Cosmos 1844 Rocket 3.0 22:36:10 10° SSW 22:41:49 76° WNW 22:47:29 10° NNE
Cosmos 1758 Rocket 3.7 22:40:42 10° N 22:45:11 88° W 22:49:40 10° S
Lacrosse 5 rocket 1.1 22:41:45 10° NW 22:45:30 70° NE 22:49:28 10° SE
OAO 2 Rocket 4.2 22:40:37 10° WSW 22:45:35 45° S 22:50:39 10° ESE
FengYun 1-2 T 4.5 22:40:43 10° SE 22:46:07 49° ENE 22:51:30 10° N
Envisat 3.0 22:42:15 10° SSE 22:47:14 61° ENE 22:52:16 10° N
Cosmos 1470 4.3 22:44:08 10° SSW 22:47:55 41° WNW 22:51:43 10° N
Meteor 1-16 Rocket 4.2 22:47:43 10° S 22:53:14 62° E 22:58:37 10° NNE
Cosmos 1328 4.2 22:53:50 10° N 22:57:35 38° ENE 23:01:16 10° SSE
Cosmos 839 Rocket 4.4 22:51:44 10° NNW 22:57:45 48° NE 23:04:33 10° SE
ASTEX 1 3.4 22:53:59 10° NNE 22:58:55 64° E 23:03:50 10° S
Shenzhou-11 Module 2.1 22:57:46 10° W 23:00:30 55° N 23:02:28 17° ENE
SKYMED 2 3.5 22:57:31 10° NNE 23:01:53 76° ESE 23:06:13 10° S
YAOGAN 1 2.8 22:58:49 10° SE 23:02:56 45° ENE 23:07:05 10° N
Cosmos 2278 Rocket 2.7 22:58:37 10° S 23:03:48 38° ESE 23:09:01 10° NE
Cosmos 1844 4.4 23:03:00 10° SW 23:08:37 59° WNW 23:14:20 10° NNE
ATLAS 5 CENTAUR R/B 3.8 23:05:18 10° W 23:08:47 23° NW 23:12:35 10° NNE
CZ-4 R/B 1.4 23:06:09 10° SSE 23:10:16 74° ENE 23:14:30 10° N
Cosmos 1726 1.9 23:08:54 10° S 23:12:32 79° E 23:16:12 10° N
Cosmos 292 Rocket 3.7 23:08:41 10° SSW 23:13:25 78° ESE 23:18:11 10° NNE
Cosmos 1726 Rocket 4.3 23:10:37 10° SSW 23:14:57 57° W 23:19:17 10° N
Cosmos 1242 Rocket 2.4 23:13:05 10° N 23:16:47 79° E 23:20:27 10° SSE
Cosmos 2228 4.2 23:15:28 10° SSW 23:19:41 47° W 23:23:55 10° N
CZ-4 R/B 4.5 23:15:43 10° S 23:19:49 81° WSW 23:23:58 10° NNW
Cosmos 489 Rocket 4.4 23:14:45 10° SSW 23:20:57 83° ESE 23:27:11 10° NNE
Cosmos 1271 Rocket 4.1 23:17:47 10° NNW 23:21:35 44° W 23:25:23 10° SSW
ATLAS 3B R/B 4.3 23:18:52 10° SE 23:20:18 12° ESE 23:20:18 12° ESE
CZ-2D R/B 3.6 23:19:38 10° SE 23:23:15 40° ENE 23:26:54 10° N
CSL-04 Rocket 3.7 23:20:48 10° SSE 23:26:20 84° ENE 23:31:52 10° NNW
Lacrosse 5 3.3 23:24:37 10° NNW 23:28:39 23° NNE 23:30:25 19° NE
Cosmos 921 Rocket 4.4 23:25:36 10° SW 23:29:53 43° WNW 23:34:10 10° N
Ariane Rocket 3.3 23:25:07 10° SE 23:29:54 43° ENE 23:34:43 10° N
Cosmos 2058 Rocket 3.6 23:26:32 10° SSW 23:30:49 60° W 23:35:08 10° N
CENTAUR R/B 4.2 23:30:26 10° SE 23:30:51 11° SE 23:30:51 11° SE
NOAA 11 4.2 23:29:25 10° SSE 23:34:45 58° ENE 23:40:05 10° N
SL-4 R/B 3.3 23:31:34 10° WNW 23:35:01 33° SW 23:38:03 11° SSE
Abrixas rocket 2.0 23:34:43 10° WSW 23:37:46 79° NNW 23:38:27 50° NE
Cosmos 1703 3.7 23:40:33 10° NNW 23:44:27 62° W 23:48:17 10° S
USA 238 DEB 3.7 23:39:03 10° SSW 23:45:32 58° ESE 23:51:24 14° NE
USA 238 3.7 23:39:10 10° SSW 23:45:39 58° ESE 23:51:26 14° NE
Cosmos 1833 Rocket 2.8 23:41:41 10° NNW 23:47:10 51° ENE 23:49:34 31° ESE
Unknown 4.0 23:44:31 10° NW 23:46:56 31° N 23:46:56 31° N
Cosmos 482 Debris 4.0 23:43:31 10° NW 23:48:00 71° SW 23:48:37 53° SSE
YAOGAN 6 4.3 23:45:47 10° SSW 23:49:09 34° W 23:52:32 10° NNW
COSMO-SKYMED 1 4.4 23:45:59 10° N 23:49:50 32° WNW 23:53:40 10° SW
Unknown 3.3 23:49:33 10° NW 23:51:36 48° WNW 23:51:36 48° WNW
OAO 3 Rocket 4.0 23:48:42 10° WSW 23:53:21 42° S 23:54:50 33° SE
Cosmos 1777 Rocket 3.9 23:48:10 10° NNW 23:53:25 89° WSW 23:58:21 11° SSE
